sat.trackr.live / text

‹ back to catalog

YAOGAN-31 01A

NORAD 43275 · 2018-034A

PAYLOAD ACTIVE UNKNOWN

§ Identity

Operator
Country
PRC
Launch date
2018-04-10
Launch site
JSC
Launch vehicle
Mass (kg)
RCS (m²)

External: N2YO · Heavens-Above · Gunter

§ Orbital elements

Epoch: 2026-09-20T04:44:22.862976Z

Period
107.03 min
Inclination
63.3932°
Eccentricity
0.0283663
Mean motion
13.45467470 rev/d
Perigee alt
877.2 km
Apogee alt
1,300.8 km
Semi-major
7,467.1 km
B*
2.1184e-4
RAAN
206.7916°
Arg perigee
7.7377°
Mean anomaly
352.7889°
Rev number
41,488

§ Raw data

YAOGAN-31 01A1 43275U 18034A   26263.19748684  .00000070  00000+0  21184-3 0  99982 43275  63.3932 206.7916 0283663   7.7377 352.7889 13.45467470414887

JSON: /api/v1/satellites/43275 · /tle

For live sub-satellite position, see the globe view (requires WebGL).

§ Visibility from observer

Set your observer location to see the next 7 days of passes ≥ 10°. The values pass through the URL so the page stays shareable.

No JS? Fill the form by hand. The geolocation button needs JavaScript.